Year,Month,Day,Hour,Minute,Value (Times are PST for temperature in C)
2009,08,22,08,01,11.00
2009,08,22,08,02,11.00
2009,08,22,08,03,11.20
2009,08,22,08,04,11.30
2009,08,22,08,05,11.40
2009,08,22,08,06,11.40
2009,08,22,08,07,11.50
2009,08,22,08,08,11.60
2009,08,22,08,09,11.60
2009,08,22,08,10,11.70
2009,08,22,08,11,11.80
2009,08,22,08,12,11.90
2009,08,22,08,13,12.00
2009,08,22,08,14,12.10
2009,08,22,08,15,12.20
2009,08,22,08,16,12.30
2009,08,22,08,17,12.40
2009,08,22,08,18,12.50
2009,08,22,08,19,12.60
2009,08,22,08,20,12.70
2009,08,22,08,21,12.80
2009,08,22,08,22,12.80
2009,08,22,08,23,12.80
2009,08,22,08,24,12.90
2009,08,22,08,25,12.90
2009,08,22,08,26,13.00
2009,08,22,08,27,13.10
2009,08,22,08,28,13.10
2009,08,22,08,29,13.20
2009,08,22,08,30,13.20
2009,08,22,08,31,13.30
2009,08,22,08,32,13.30
2009,08,22,08,33,13.40
2009,08,22,08,34,13.40
2009,08,22,08,35,13.40
2009,08,22,08,36,13.50
2009,08,22,08,37,13.50
2009,08,22,08,38,13.60
2009,08,22,08,39,13.60
2009,08,22,08,40,13.60
2009,08,22,08,41,13.70
2009,08,22,08,42,13.80
2009,08,22,08,43,13.90
2009,08,22,08,44,14.10
2009,08,22,08,45,14.10
2009,08,22,08,46,14.20
2009,08,22,08,47,14.20
2009,08,22,08,48,14.30
2009,08,22,08,49,14.30
2009,08,22,08,50,14.30
2009,08,22,08,51,14.40
2009,08,22,08,52,14.50
2009,08,22,08,53,14.50
2009,08,22,08,54,14.60
2009,08,22,08,55,14.60
2009,08,22,08,56,14.80
2009,08,22,08,57,14.90
2009,08,22,08,58,15.00
2009,08,22,08,59,15.00
2009,08,22,09,00,15.00
2009,08,22,09,01,15.00
2009,08,22,09,02,15.10
2009,08,22,09,03,15.20
2009,08,22,09,04,15.30
2009,08,22,09,05,15.30
2009,08,22,09,06,15.40
2009,08,22,09,07,15.60
2009,08,22,09,08,15.70
2009,08,22,09,09,15.80
2009,08,22,09,10,15.90
2009,08,22,09,11,15.90
2009,08,22,09,12,15.80
2009,08,22,09,13,15.80
2009,08,22,09,14,15.80
2009,08,22,09,15,15.90
2009,08,22,09,16,15.90
2009,08,22,09,17,15.90
2009,08,22,09,18,15.90
2009,08,22,09,19,15.90
2009,08,22,09,20,15.80
2009,08,22,09,21,15.80
2009,08,22,09,22,15.80
2009,08,22,09,23,15.80
2009,08,22,09,24,15.80
2009,08,22,09,25,15.80
2009,08,22,09,26,15.90
2009,08,22,09,27,16.00
2009,08,22,09,28,16.00
2009,08,22,09,29,16.10
2009,08,22,09,30,16.20
2009,08,22,09,31,16.30
2009,08,22,09,32,16.30
2009,08,22,09,33,16.40
2009,08,22,09,34,16.50
2009,08,22,09,35,16.60
2009,08,22,09,36,16.60
2009,08,22,09,37,16.70
2009,08,22,09,38,16.70
2009,08,22,09,39,16.60
2009,08,22,09,40,16.60
2009,08,22,09,41,16.60
2009,08,22,09,42,16.50
2009,08,22,09,43,16.50
2009,08,22,09,44,16.50
2009,08,22,09,45,16.60
2009,08,22,09,46,16.60
2009,08,22,09,47,16.60
2009,08,22,09,48,16.60
2009,08,22,09,49,16.60
2009,08,22,09,50,16.60
2009,08,22,09,51,16.60
2009,08,22,09,52,16.50
2009,08,22,09,53,16.50
2009,08,22,09,54,16.60
2009,08,22,09,55,16.60
2009,08,22,09,56,16.70
2009,08,22,09,57,16.80
2009,08,22,09,58,16.80
2009,08,22,09,59,17.00
2009,08,22,10,00,17.00
2009,08,22,10,01,17.10
2009,08,22,10,02,17.20
2009,08,22,10,03,17.20
2009,08,22,10,04,17.30
2009,08,22,10,05,17.40
2009,08,22,10,06,17.50
2009,08,22,10,07,17.50
2009,08,22,10,08,17.60
2009,08,22,10,09,17.60
2009,08,22,10,10,17.60
2009,08,22,10,11,17.60
2009,08,22,10,12,17.60
2009,08,22,10,13,17.70
2009,08,22,10,14,17.70
2009,08,22,10,15,17.70
2009,08,22,10,16,17.70
2009,08,22,10,17,17.80
2009,08,22,10,18,17.80
2009,08,22,10,19,17.80
2009,08,22,10,20,17.90
2009,08,22,10,21,17.90
2009,08,22,10,22,18.00
2009,08,22,10,23,18.00
2009,08,22,10,24,18.10
2009,08,22,10,25,18.20
2009,08,22,10,26,18.30
2009,08,22,10,27,18.30
2009,08,22,10,28,18.40
2009,08,22,10,29,18.50
2009,08,22,10,30,18.70
2009,08,22,10,31,18.80
2009,08,22,10,32,18.80
2009,08,22,10,33,18.90
2009,08,22,10,34,18.90
2009,08,22,10,35,18.90
2009,08,22,10,36,19.00
2009,08,22,10,37,19.00
2009,08,22,10,38,19.00
2009,08,22,10,39,19.10
2009,08,22,10,40,19.10
2009,08,22,10,41,19.10
2009,08,22,10,42,19.00
2009,08,22,10,43,18.90
2009,08,22,10,44,18.80
2009,08,22,10,45,18.80
2009,08,22,10,46,18.70
2009,08,22,10,47,18.60
2009,08,22,10,48,18.50
2009,08,22,10,49,18.50
2009,08,22,10,50,18.50
2009,08,22,10,51,18.60
2009,08,22,10,52,18.70
2009,08,22,10,53,18.80
2009,08,22,10,54,18.90
2009,08,22,10,55,18.90
2009,08,22,10,56,18.80
2009,08,22,10,57,18.80
2009,08,22,10,58,18.80
2009,08,22,10,59,18.70
2009,08,22,11,00,18.60
2009,08,22,11,01,18.50
2009,08,22,11,02,18.50
2009,08,22,11,03,18.60
2009,08,22,11,04,18.60
2009,08,22,11,05,18.60
2009,08,22,11,06,18.60
2009,08,22,11,07,18.60
2009,08,22,11,08,18.70
2009,08,22,11,09,18.80
2009,08,22,11,10,18.90
2009,08,22,11,11,18.90
2009,08,22,11,12,19.00
2009,08,22,11,13,19.00
2009,08,22,11,14,19.10
2009,08,22,11,15,18.90
2009,08,22,11,16,18.80
2009,08,22,11,17,18.80
2009,08,22,11,18,18.90
2009,08,22,11,19,19.00
2009,08,22,11,20,19.10
2009,08,22,11,21,19.20
2009,08,22,11,22,19.20
2009,08,22,11,23,19.20
2009,08,22,11,24,19.20
2009,08,22,11,25,19.20
2009,08,22,11,26,19.30
2009,08,22,11,27,19.30
2009,08,22,11,28,19.50
2009,08,22,11,29,19.50
2009,08,22,11,30,19.40
2009,08,22,11,31,19.40
2009,08,22,11,32,19.40
2009,08,22,11,33,19.40
2009,08,22,11,34,19.40
2009,08,22,11,35,19.50
2009,08,22,11,36,19.50
2009,08,22,11,37,19.40
2009,08,22,11,38,19.30
2009,08,22,11,39,19.20
2009,08,22,11,40,19.10
2009,08,22,11,41,19.20
2009,08,22,11,42,19.30
2009,08,22,11,43,19.60
2009,08,22,11,44,19.70
2009,08,22,11,45,19.70
2009,08,22,11,46,19.70
2009,08,22,11,47,19.60
2009,08,22,11,48,19.60
2009,08,22,11,49,19.60
2009,08,22,11,50,19.60
2009,08,22,11,51,19.60
2009,08,22,11,52,19.50
2009,08,22,11,53,19.30
2009,08,22,11,54,19.20
2009,08,22,11,55,19.20
2009,08,22,11,56,19.20
2009,08,22,11,57,19.20
2009,08,22,11,58,19.20
2009,08,22,11,59,19.30
2009,08,22,12,00,19.40
2009,08,22,12,01,19.40
2009,08,22,12,02,19.50
2009,08,22,12,03,19.60
2009,08,22,12,04,19.60
2009,08,22,12,05,19.60
2009,08,22,12,06,19.50
2009,08,22,12,07,19.50
2009,08,22,12,08,19.60
2009,08,22,12,09,19.60
2009,08,22,12,10,19.50
2009,08,22,12,11,19.30
2009,08,22,12,12,19.30
2009,08,22,12,13,19.40
2009,08,22,12,14,19.40
2009,08,22,12,15,19.50
2009,08,22,12,16,19.60
2009,08,22,12,17,19.80
2009,08,22,12,18,19.80
2009,08,22,12,19,19.70
2009,08,22,12,20,19.70
2009,08,22,12,21,19.60
2009,08,22,12,22,19.50
2009,08,22,12,23,19.50
2009,08,22,12,24,19.60
2009,08,22,12,25,19.70
2009,08,22,12,26,19.90
2009,08,22,12,27,20.00
2009,08,22,12,28,20.00
2009,08,22,12,29,20.00
2009,08,22,12,30,19.90
2009,08,22,12,31,19.80
2009,08,22,12,32,19.80
2009,08,22,12,33,19.80
2009,08,22,12,34,19.70
2009,08,22,12,35,19.80
2009,08,22,12,36,19.90
2009,08,22,12,37,20.00
2009,08,22,12,38,20.00
2009,08,22,12,39,19.90
2009,08,22,12,40,19.90
2009,08,22,12,41,19.90
2009,08,22,12,42,19.80
2009,08,22,12,43,19.70
2009,08,22,12,44,19.70
2009,08,22,12,45,19.60
2009,08,22,12,46,19.70
2009,08,22,12,47,19.90
2009,08,22,12,48,19.90
2009,08,22,12,49,19.80
2009,08,22,12,50,19.80
2009,08,22,12,51,19.80
2009,08,22,12,52,19.80
2009,08,22,12,53,19.70
2009,08,22,12,54,19.70
2009,08,22,12,55,19.60
2009,08,22,12,56,19.60
2009,08,22,12,57,19.50
2009,08,22,12,58,19.50
2009,08,22,12,59,19.40
2009,08,22,13,00,19.40
2009,08,22,13,01,19.40
2009,08,22,13,02,19.50
2009,08,22,13,03,19.60
2009,08,22,13,04,19.60
2009,08,22,13,05,19.70
2009,08,22,13,06,19.90
2009,08,22,13,07,19.90
2009,08,22,13,08,19.90
2009,08,22,13,09,19.80
2009,08,22,13,10,19.50
2009,08,22,13,11,19.40
2009,08,22,13,12,19.30
2009,08,22,13,13,19.20
2009,08,22,13,14,19.10
2009,08,22,13,15,19.20
2009,08,22,13,16,19.20
2009,08,22,13,17,19.30
2009,08,22,13,18,19.30
2009,08,22,13,19,19.50
2009,08,22,13,20,19.70
2009,08,22,13,21,19.90
2009,08,22,13,22,20.10
2009,08,22,13,23,20.00
2009,08,22,13,24,20.00
2009,08,22,13,25,20.10
2009,08,22,13,26,20.10
2009,08,22,13,27,20.00
2009,08,22,13,28,20.00
2009,08,22,13,29,19.90
2009,08,22,13,30,19.90
2009,08,22,13,31,20.00
2009,08,22,13,32,20.00
2009,08,22,13,33,20.00
2009,08,22,13,34,20.10
2009,08,22,13,35,20.10
2009,08,22,13,36,20.10
2009,08,22,13,37,20.10
2009,08,22,13,38,20.10
2009,08,22,13,39,20.20
2009,08,22,13,40,20.30
2009,08,22,13,41,20.40
2009,08,22,13,42,20.40
2009,08,22,13,43,20.40
2009,08,22,13,44,20.50
2009,08,22,13,45,20.40
2009,08,22,13,46,20.30
2009,08,22,13,47,20.40
2009,08,22,13,48,20.30
2009,08,22,13,49,20.20
2009,08,22,13,50,20.20
2009,08,22,13,51,20.10
2009,08,22,13,52,20.20
2009,08,22,13,53,20.20
2009,08,22,13,54,20.10
2009,08,22,13,55,19.90
2009,08,22,13,56,19.70
2009,08,22,13,57,19.50
2009,08,22,13,58,19.40
2009,08,22,13,59,19.40
2009,08,22,14,00,19.50
2009,08,22,14,01,19.60
2009,08,22,14,02,19.60
2009,08,22,14,03,19.70
2009,08,22,14,04,19.80
2009,08,22,14,05,19.80
2009,08,22,14,06,20.00
2009,08,22,14,07,20.10
2009,08,22,14,08,20.10
2009,08,22,14,09,20.00
2009,08,22,14,10,19.90
2009,08,22,14,11,19.90
2009,08,22,14,12,19.80
2009,08,22,14,13,19.80
2009,08,22,14,14,19.80
2009,08,22,14,15,19.80
2009,08,22,14,16,19.80
2009,08,22,14,17,19.90
2009,08,22,14,18,19.90
2009,08,22,14,19,20.00
2009,08,22,14,20,20.10
2009,08,22,14,21,20.00
2009,08,22,14,22,19.90
2009,08,22,14,23,20.00
2009,08,22,14,24,20.00
2009,08,22,14,25,20.10
2009,08,22,14,26,20.30
2009,08,22,14,27,20.30
2009,08,22,14,28,20.30
2009,08,22,14,29,20.30
2009,08,22,14,30,20.40
2009,08,22,14,31,20.40
2009,08,22,14,32,20.40
2009,08,22,14,33,20.30
2009,08,22,14,34,20.30
2009,08,22,14,35,20.20
2009,08,22,14,36,20.20
2009,08,22,14,37,20.20
2009,08,22,14,38,20.20
2009,08,22,14,39,20.30
2009,08,22,14,40,20.40
2009,08,22,14,41,20.40
2009,08,22,14,42,20.40
2009,08,22,14,43,20.40
2009,08,22,14,44,20.40
2009,08,22,14,45,20.50
2009,08,22,14,46,20.60
2009,08,22,14,47,20.60
2009,08,22,14,48,20.60
2009,08,22,14,49,20.60
2009,08,22,14,50,20.60
2009,08,22,14,51,20.40
2009,08,22,14,52,20.40
2009,08,22,14,53,20.30
2009,08,22,14,54,20.30
2009,08,22,14,55,20.20
2009,08,22,14,56,20.30
2009,08,22,14,57,20.30
2009,08,22,14,58,20.30
2009,08,22,14,59,20.30
2009,08,22,15,00,20.40
2009,08,22,15,01,20.40
2009,08,22,15,02,20.50
2009,08,22,15,03,20.60
2009,08,22,15,04,20.70
2009,08,22,15,05,20.80
2009,08,22,15,06,20.80
2009,08,22,15,07,20.90
2009,08,22,15,08,20.90
2009,08,22,15,09,20.80
2009,08,22,15,10,20.70
2009,08,22,15,11,20.70
2009,08,22,15,12,20.70
2009,08,22,15,13,20.60
2009,08,22,15,14,20.50
2009,08,22,15,15,20.40
2009,08,22,15,16,20.40
2009,08,22,15,17,20.30
2009,08,22,15,18,20.30
2009,08,22,15,19,20.20
2009,08,22,15,20,20.30
2009,08,22,15,21,20.40
2009,08,22,15,22,20.50
2009,08,22,15,23,20.60
2009,08,22,15,24,20.60
2009,08,22,15,25,20.50
2009,08,22,15,26,20.50
2009,08,22,15,27,20.40
2009,08,22,15,28,20.40
2009,08,22,15,29,20.50
2009,08,22,15,30,20.60
2009,08,22,15,31,20.60
2009,08,22,15,32,20.60
2009,08,22,15,33,20.60
2009,08,22,15,34,20.60
2009,08,22,15,35,20.60
2009,08,22,15,36,20.70
2009,08,22,15,37,20.90
2009,08,22,15,38,21.10
2009,08,22,15,39,21.20
2009,08,22,15,40,21.30
2009,08,22,15,41,21.30
2009,08,22,15,42,21.30
2009,08,22,15,43,21.40
2009,08,22,15,44,21.40
2009,08,22,15,45,21.40
2009,08,22,15,46,21.30
2009,08,22,15,47,21.40
2009,08,22,15,48,21.30
2009,08,22,15,49,21.30
2009,08,22,15,50,21.30
2009,08,22,15,51,21.30
2009,08,22,15,52,21.40
2009,08,22,15,53,21.40
2009,08,22,15,54,21.50
2009,08,22,15,55,21.60
2009,08,22,15,56,21.70
2009,08,22,15,57,21.80
2009,08,22,15,58,21.80
2009,08,22,15,59,21.80
2009,08,22,16,00,21.80
2009,08,22,16,01,21.80
2009,08,22,16,02,21.80
2009,08,22,16,03,21.90
2009,08,22,16,04,21.90
2009,08,22,16,05,21.90
2009,08,22,16,06,21.80
2009,08,22,16,07,21.80
2009,08,22,16,08,21.80
2009,08,22,16,09,21.80
2009,08,22,16,10,21.80
2009,08,22,16,11,21.80
2009,08,22,16,12,21.80
2009,08,22,16,13,21.80
2009,08,22,16,14,21.80
2009,08,22,16,15,21.70
2009,08,22,16,16,21.60
2009,08,22,16,17,21.40
2009,08,22,16,18,21.30
2009,08,22,16,19,21.20
2009,08,22,16,20,21.20
2009,08,22,16,21,21.10
2009,08,22,16,22,21.00
2009,08,22,16,23,21.00
2009,08,22,16,24,20.90
2009,08,22,16,25,20.80
2009,08,22,16,26,20.80
2009,08,22,16,27,20.80
2009,08,22,16,28,20.70
2009,08,22,16,29,20.70
2009,08,22,16,30,20.60
2009,08,22,16,31,20.60
2009,08,22,16,32,20.70
2009,08,22,16,33,20.70
2009,08,22,16,34,20.80
2009,08,22,16,35,20.80
2009,08,22,16,36,20.80
2009,08,22,16,37,20.80
2009,08,22,16,38,20.80
2009,08,22,16,39,20.80
2009,08,22,16,40,20.80
2009,08,22,16,41,20.90
2009,08,22,16,42,20.90
2009,08,22,16,43,20.90
2009,08,22,16,44,20.90
2009,08,22,16,45,20.90
2009,08,22,16,46,20.90
2009,08,22,16,47,20.90
2009,08,22,16,48,20.90
2009,08,22,16,49,20.90
2009,08,22,16,50,20.90
2009,08,22,16,51,20.90
2009,08,22,16,52,20.90
2009,08,22,16,53,20.90
2009,08,22,16,54,20.90
2009,08,22,16,55,20.90
2009,08,22,16,56,20.90
2009,08,22,16,57,20.80
2009,08,22,16,58,20.70
2009,08,22,16,59,20.70
2009,08,22,17,00,20.70
2009,08,22,17,01,20.60
2009,08,22,17,02,20.60
2009,08,22,17,03,20.60
2009,08,22,17,04,20.70
2009,08,22,17,05,20.70
2009,08,22,17,06,20.80
2009,08,22,17,07,20.80
2009,08,22,17,08,20.80
2009,08,22,17,09,20.70
2009,08,22,17,10,20.70
2009,08,22,17,11,20.60
2009,08,22,17,12,20.60
2009,08,22,17,13,20.60
2009,08,22,17,14,20.60
2009,08,22,17,15,20.60
2009,08,22,17,16,20.60
2009,08,22,17,17,20.60
2009,08,22,17,18,20.60
2009,08,22,17,19,20.60
2009,08,22,17,20,20.60
2009,08,22,17,21,20.70
2009,08,22,17,22,20.70
2009,08,22,17,23,20.70
2009,08,22,17,24,20.70
2009,08,22,17,25,20.60
2009,08,22,17,26,20.60
2009,08,22,17,27,20.60
2009,08,22,17,28,20.60
2009,08,22,17,29,20.50
2009,08,22,17,30,20.50
2009,08,22,17,31,20.50
2009,08,22,17,32,20.60
2009,08,22,17,33,20.60
2009,08,22,17,34,20.70
2009,08,22,17,35,20.70
2009,08,22,17,36,20.70
2009,08,22,17,37,20.70
2009,08,22,17,38,20.70
2009,08,22,17,39,20.70
2009,08,22,17,40,20.70
2009,08,22,17,41,20.70
2009,08,22,17,42,20.70
2009,08,22,17,43,20.70
2009,08,22,17,44,20.70
2009,08,22,17,45,20.60
2009,08,22,17,46,20.60
2009,08,22,17,47,20.60
2009,08,22,17,48,20.50
2009,08,22,17,49,20.50
2009,08,22,17,50,20.50
2009,08,22,17,51,20.50
2009,08,22,17,52,20.50
2009,08,22,17,53,20.60
2009,08,22,17,54,20.60
2009,08,22,17,55,20.70
2009,08,22,17,56,20.70
2009,08,22,17,57,20.80
2009,08,22,17,58,20.80
2009,08,22,17,59,20.70
2009,08,22,18,00,20.70
2009,08,22,18,01,20.80
2009,08,22,18,02,20.80
2009,08,22,18,03,20.80
2009,08,22,18,04,20.80
2009,08,22,18,05,20.90
2009,08,22,18,06,20.90
2009,08,22,18,07,20.90
2009,08,22,18,08,20.90
2009,08,22,18,09,20.90
2009,08,22,18,10,20.80
2009,08,22,18,11,20.80
2009,08,22,18,12,20.70
2009,08,22,18,13,20.70
2009,08,22,18,14,20.70
2009,08,22,18,15,20.60
2009,08,22,18,16,20.60
2009,08,22,18,17,20.60
2009,08,22,18,18,20.50
2009,08,22,18,19,20.50
2009,08,22,18,20,20.50
2009,08,22,18,21,20.50
2009,08,22,18,22,20.50
2009,08,22,18,23,20.40
2009,08,22,18,24,20.40
2009,08,22,18,25,20.40
2009,08,22,18,26,20.50
2009,08,22,18,27,20.50
2009,08,22,18,28,20.60
2009,08,22,18,29,20.60
2009,08,22,18,30,20.60
2009,08,22,18,31,20.70
2009,08,22,18,32,20.70
2009,08,22,18,33,20.70
2009,08,22,18,34,20.60
2009,08,22,18,35,20.50
2009,08,22,18,36,20.50
2009,08,22,18,37,20.40
2009,08,22,18,38,20.50
2009,08,22,18,39,20.50
2009,08,22,18,40,20.50
2009,08,22,18,41,20.50
2009,08,22,18,42,20.50
2009,08,22,18,43,20.50
2009,08,22,18,44,20.50
2009,08,22,18,45,20.50
2009,08,22,18,46,20.50
2009,08,22,18,47,20.50
2009,08,22,18,48,20.40
2009,08,22,18,49,20.40
2009,08,22,18,50,20.40
2009,08,22,18,51,20.40
2009,08,22,18,52,20.40
2009,08,22,18,53,20.40
2009,08,22,18,54,20.40
2009,08,22,18,55,20.30
2009,08,22,18,56,20.30
2009,08,22,18,57,20.30
2009,08,22,18,58,20.30
2009,08,22,18,59,20.30
2009,08,22,19,00,20.30
2009,08,22,19,01,20.30
2009,08,22,19,02,20.30
2009,08,22,19,03,20.30
2009,08,22,19,04,20.30
2009,08,22,19,05,20.30
2009,08,22,19,06,20.30
2009,08,22,19,07,20.30
2009,08,22,19,08,20.30
2009,08,22,19,09,20.40
2009,08,22,19,10,20.50
2009,08,22,19,11,20.50
2009,08,22,19,12,20.60
2009,08,22,19,13,20.60
2009,08,22,19,14,20.60
2009,08,22,19,15,20.60
2009,08,22,19,16,20.60
2009,08,22,19,17,20.60
2009,08,22,19,18,20.60
2009,08,22,19,19,20.60
2009,08,22,19,20,20.60
2009,08,22,19,21,20.60
2009,08,22,19,22,20.60
